1516500000.72,53733,2.75,71678.8,-14.17,-16.55,-16.13,0,*60
1516500001.97,53734,2.75,71670.8,-14.17,-16.55,-16.03,0,*66
1516500003.22,53735,2.75,71664.3,-14.17,-16.55,-16.03,0,*67
1516500004.47,53736,2.75,71666.0,-14.17,-16.55,-16.03,0,*64
1516500005.74,53737,2.75,71670.8,-14.15,-16.51,-15.89,0,*62
1516500007.01,53738,2.75,71670.5,-14.15,-16.23,-15.85,0,*64
1516500008.28,53739,2.75,71672.0,-14.15,-16.23,-15.85,0,*65
1516500009.56,53740,2.75,71668.8,-14.15,-16.23,-15.85,0,*6B
1516500010.8,53741,2.75,71672.8,-14.15,-16.23,-15.99,0,*67
1516500012.04,53742,2.75,71662.3,-14.15,-16.31,-16.03,0,*67
1516500013.29,53743,2.75,71664.3,-14.15,-16.37,-15.89,0,*61
1516500014.55,53744,2.75,71666.3,-14.15,-16.31,-15.89,0,*60
1516500015.82,53745,2.75,71668.3,-14.15,-16.17,-15.89,0,*65
1516500017.09,53746,2.75,71662.8,-14.15,-16.31,-15.85,0,*6E
1516500018.36,53747,2.75,71666.0,-14.13,-16.23,-15.75,0,*65
1516500019.62,53748,2.75,71664.8,-14.15,-16.09,-15.75,0,*64
1516500020.86,53749,2.69,71664.8,-14.15,-15.89,-15.63,0,*69
1516500022.14,53750,2.75,71668.3,-14.15,-15.89,-15.57,0,*66
1516500023.41,53751,2.75,71662.3,-14.13,-15.75,-15.35,0,*66
1516500024.66,53752,2.75,71652.0,-14.15,-15.71,-15.43,0,*66
1516500025.88,53753,2.75,71654.5,-14.15,-15.49,-15.29,0,*60
1516500027.13,53754,2.75,71660.0,-14.15,-15.43,-15.15,0,*62
1516500028.35,53755,2.75,71660.5,-14.15,-15.29,-15.15,0,*6F
1516500029.59,53756,2.75,71656.3,-14.15,-15.21,-15.07,0,*67
1516500030.86,53757,2.75,71658.5,-14.13,-15.21,-15.15,0,*63
1516500032.09,53758,2.75,71660.8,-14.15,-15.21,-15.07,0,*69
1516500033.33,53759,2.75,71644.8,-14.15,-15.21,-15.07,0,*68
1516500034.55,53760,2.75,71650.0,-14.15,-15.15,-15.07,0,*65
1516500035.8,53761,2.75,71630.3,-14.13,-15.15,-15.15,0,*61
1516500037.04,53762,2.75,71570.3,-14.15,-15.21,-15.07,0,*60
1516500038.3,53763,2.75,71572.8,-14.13,-15.21,-15.07,0,*67
1516500039.57,53764,2.75,71588.3,-14.13,-15.07,-14.97,0,*6C
1516500040.83,53765,2.75,71584.8,-14.13,-15.07,-15.01,0,*63
1516500042.07,53766,2.75,71602.8,-14.15,-15.07,-15.01,0,*66
1516500043.32,53767,2.75,71584.8,-14.13,-15.15,-15.07,0,*64
1516500044.56,53768,2.75,71606.3,-14.13,-15.15,-15.15,0,*68
1516500045.81,53769,2.75,71604.3,-14.13,-15.15,-15.07,0,*6A
1516500047.05,53770,2.75,71618.8,-14.13,-15.15,-15.07,0,*62
1516500048.32,53771,2.75,71630.0,-14.13,-15.21,-15.15,0,*67
1516500049.58,53772,2.75,71636.0,-14.13,-15.21,-15.15,0,*64
1516500050.83,53773,2.75,71636.0,-14.13,-15.15,-15.15,0,*62
1516500052.07,53774,2.75,71638.0,-14.15,-15.15,-15.21,0,*64
1516500053.33,53775,2.75,71642.5,-14.13,-15.29,-15.29,0,*64
1516500054.58,53776,2.75,71646.3,-14.13,-15.29,-15.29,0,*67
1516500055.83,53777,2.75,71644.8,-14.13,-15.29,-15.29,0,*66
1516500057.06,53778,2.75,71648.0,-14.11,-15.25,-15.29,0,*67
1516500058.33,53779,2.75,71642.5,-14.11,-15.39,-15.43,0,*67
1516500059.6,53780,2.75,71644.3,-14.11,-15.39,-15.39,0,*6C
1516500060.88,53781,2.75,71644.8,-14.11,-15.43,-15.39,0,*60
1516500062.15,53782,2.69,71640.0,-14.11,-15.57,-15.39,0,*66
1516500063.37,53783,2.75,71640.3,-14.11,-15.53,-15.29,0,*62
1516500064.64,53784,2.75,71646.5,-14.11,-15.57,-15.39,0,*60
1516500065.89,53785,2.69,71636.0,-14.11,-15.57,-15.29,0,*60
1516500067.14,53786,2.75,71644.5,-14.11,-15.57,-15.53,0,*6E
1516500068.39,53787,2.75,71656.8,-14.11,-15.53,-15.39,0,*67
1516500069.63,53788,2.75,71656.0,-14.11,-15.57,-15.29,0,*6D
1516500070.89,53789,2.75,71660.0,-14.09,-15.53,-15.29,0,*61
1516500072.14,53790,2.75,71658.8,-14.11,-15.43,-15.29,0,*61
1516500073.41,53791,2.75,71660.8,-14.11,-15.43,-15.39,0,*61
1516500074.63,53792,2.75,71656.5,-14.11,-15.53,-15.53,0,*6F
1516500075.88,53793,2.75,71666.5,-14.11,-15.57,-15.53,0,*6A
1516500077.15,53794,2.75,71668.5,-14.09,-15.53,-15.43,0,*61
1516500078.37,53795,2.75,71664.8,-14.11,-15.67,-15.71,0,*6F
1516500079.62,53796,2.75,71658.3,-14.11,-15.71,-15.81,0,*64
1516500080.83,53797,2.75,71664.0,-14.11,-16.03,-15.95,0,*66
1516500082.1,53798,2.75,71660.8,-14.11,-16.31,-16.13,0,*65
1516500083.37,53799,2.75,71660.8,-14.09,-16.55,-16.13,0,*6F
1516500084.62,53800,2.69,71662.3,-14.11,-16.55,-16.17,0,*6D
1516500085.86,53801,2.75,71664.0,-14.09,-16.75,-16.45,0,*60
1516500087.07,53802,2.69,71656.5,-14.11,-16.83,-16.45,0,*63
1516500088.29,53803,2.75,71658.5,-14.11,-16.93,-16.59,0,*6E
1516500089.5,53804,2.69,71660.0,-14.11,-16.93,-16.55,0,*65
1516500090.74,53805,2.75,71656.8,-14.11,-17.03,-16.45,0,*6D
1516500091.99,53806,2.75,71664.0,-14.11,-17.03,-16.55,0,*6F
1516500093.23,53807,2.75,71652.0,-14.11,-17.03,-16.59,0,*62
1516500094.51,53808,2.75,71654.3,-14.09,-17.03,-16.59,0,*64
1516500095.78,53809,2.75,71656.3,-14.11,-17.17,-16.69,0,*6A
1516500097.06,53810,2.75,71662.0,-14.09,-17.17,-16.59,0,*68
1516500098.3,53811,2.75,71662.0,-14.11,-17.21,-16.75,0,*6B
1516500099.52,53812,2.75,71662.8,-14.11,-17.31,-16.75,0,*69
1516500100.79,53813,2.75,71670.3,-14.13,-17.25,-16.79,0,*63
1516500102.01,53814,2.75,71666.3,-14.11,-17.31,-16.75,0,*6F
1516500103.26,53815,2.75,71666.5,-14.13,-17.35,-16.89,0,*6B
1516500104.53,53816,2.69,71662.8,-14.13,-17.41,-16.93,0,*60
1516500105.79,53817,2.75,71668.8,-14.13,-17.63,-16.97,0,*65
1516500107.0,53818,2.75,71666.0,-14.11,-17.49,-16.93,0,*64
1516500108.24,53819,2.69,71664.5,-14.11,-17.59,-16.89,0,*6F
1516500109.45,53820,2.69,71666.5,-14.11,-17.49,-16.89,0,*64
1516500110.69,53821,2.75,71664.8,-14.11,-17.73,-17.21,0,*6F
1516500111.96,53822,2.69,71672.0,-14.11,-17.63,-17.21,0,*6D
1516500113.19,53823,2.75,71664.0,-14.11,-17.79,-17.31,0,*66
1516500114.46,53824,2.69,71666.5,-14.13,-17.79,-17.35,0,*67
1516500115.73,53825,2.75,71668.8,-14.13,-17.79,-17.35,0,*66
1516500117.0,53826,2.75,71670.0,-14.13,-17.83,-17.41,0,*63
1516500118.27,53827,2.75,71672.8,-14.13,-17.93,-17.49,0,*6B
1516500119.54,53828,2.69,71670.3,-14.13,-17.83,-17.55,0,*68
1516500120.78,53829,2.69,71672.8,-14.13,-17.83,-17.49,0,*64
1516500122.08,53830,2.69,71664.5,-14.13,-17.93,-17.55,0,*60
1516500123.35,53831,2.75,71666.5,-14.13,-17.97,-17.49,0,*68
1516500124.62,53832,2.75,71662.8,-14.13,-17.93,-17.49,0,*6F
1516500125.89,53833,2.75,71666.3,-14.13,-17.83,-17.41,0,*67
1516500127.11,53834,2.69,71666.8,-14.15,-17.69,-17.35,0,*61
1516500128.4,53835,2.69,71666.8,-14.13,-17.79,-17.25,0,*66
1516500129.66,53836,2.75,71658.5,-14.13,-17.79,-17.49,0,*6F
1516500130.93,53837,2.75,71662.0,-14.13,-17.69,-17.41,0,*67
1516500132.17,53838,2.75,71664.3,-14.15,-17.69,-17.21,0,*68
1516500133.41,53839,2.75,71662.3,-14.15,-17.69,-17.25,0,*6D
1516500134.71,53840,2.75,71662.3,-14.13,-17.63,-17.21,0,*6B
1516500135.98,53841,2.75,71660.8,-14.13,-17.63,-17.35,0,*6F
1516500137.24,53842,2.69,71662.5,-14.13,-17.69,-17.41,0,*65
1516500138.48,53843,2.75,71670.3,-14.15,-17.79,-17.49,0,*6B
1516500139.78,53844,2.69,71664.3,-14.13,-17.93,-17.55,0,*63
1516500141.07,53845,2.75,71668.0,-14.13,-18.01,-17.55,0,*66
1516500142.36,53846,2.75,71654.0,-14.13,-18.01,-17.55,0,*65
1516500143.63,53847,2.75,71664.0,-14.15,-18.01,-17.55,0,*62
1516500144.88,53848,2.75,71646.0,-14.15,-18.17,-17.55,0,*6A
1516500146.1,53849,2.69,71652.8,-14.15,-18.11,-17.69,0,*62
1516500147.34,53850,2.69,71656.8,-14.15,-18.01,-17.69,0,*6B
1516500148.56,53851,2.69,71664.0,-14.15,-18.11,-17.69,0,*6B
1516500149.78,53852,2.69,71660.8,-14.15,-18.17,-17.69,0,*6E
1516500151.0,53853,2.75,71666.5,-14.15,-18.11,-17.69,0,*69
1516500152.22,53854,2.69,71670.0,-14.15,-18.17,-17.69,0,*68
1516500153.46,53855,2.69,71666.3,-14.13,-18.11,-17.69,0,*69
1516500154.73,53856,2.75,71670.3,-14.13,-18.25,-17.79,0,*6C
1516500156.0,53857,2.69,71674.0,-14.13,-18.17,-17.79,0,*6C
1516500157.22,53858,2.75,71670.8,-14.15,-18.17,-17.69,0,*64
1516500158.46,53859,2.75,71678.5,-14.15,-18.17,-17.79,0,*64
1516500159.7,53860,2.69,71676.5,-14.15,-18.25,-17.79,0,*6F
1516500160.93,53861,2.69,71674.8,-14.15,-18.25,-17.83,0,*6B
1516500162.18,53862,2.75,71680.5,-14.15,-18.25,-17.97,0,*6D
1516500163.43,53863,2.69,71674.0,-14.15,-18.41,-17.97,0,*6E
1516500164.68,53864,2.75,71680.5,-14.15,-18.41,-17.97,0,*69
1516500165.93,53865,2.69,71678.0,-14.15,-18.41,-17.79,0,*68
1516500167.18,53866,2.75,71684.3,-14.17,-18.45,-17.83,0,*68
1516500168.45,53867,2.75,71676.5,-14.17,-18.35,-17.83,0,*6E
1516500169.68,53868,2.69,71676.0,-14.15,-18.45,-17.69,0,*60
1516500170.93,53869,2.69,71674.8,-14.15,-18.31,-17.69,0,*62
1516500172.2,53870,2.69,71680.5,-14.13,-18.31,-17.69,0,*6C
1516500173.47,53871,2.69,71678.3,-14.15,-18.31,-17.79,0,*6A
1516500174.7,53872,2.75,71678.8,-14.15,-18.41,-17.69,0,*6F
1516500175.94,53873,2.75,71680.8,-14.17,-18.45,-17.69,0,*68
1516500177.22,53874,2.69,71672.3,-14.17,-18.31,-17.69,0,*6C
1516500178.52,53875,2.75,71676.5,-14.17,-18.31,-17.59,0,*6E
1516500179.79,53876,2.69,71668.8,-14.17,-18.17,-17.55,0,*65
1516500181.07,53877,2.75,71670.0,-14.17,-18.17,-17.45,0,*65
1516500182.34,53878,2.69,71660.3,-14.17,-18.17,-17.41,0,*6E
1516500183.59,53879,2.75,71666.8,-14.15,-17.97,-17.35,0,*69
1516500184.86,53880,2.75,71670.5,-14.15,-17.93,-17.21,0,*6E
1516500186.14,53881,2.69,71656.8,-14.15,-17.97,-17.21,0,*6B
1516500187.39,53882,2.69,71658.3,-14.15,-17.83,-17.11,0,*6E
1516500188.6,53883,2.69,71666.0,-14.15,-17.69,-16.97,0,*64
1516500189.86,53884,2.75,71656.5,-14.13,-17.79,-16.93,0,*60
1516500191.1,53885,2.75,71660.0,-14.15,-17.63,-16.89,0,*67
1516500192.35,53886,2.69,71660.0,-14.15,-17.63,-16.75,0,*67
1516500193.62,53887,2.69,71656.3,-14.15,-17.55,-16.65,0,*62
1516500194.89,53888,2.69,71662.3,-14.15,-17.41,-16.65,0,*68
1516500196.13,53889,2.69,71660.8,-14.15,-17.35,-16.51,0,*6D
1516500197.4,53890,2.69,71636.0,-14.17,-17.11,-16.41,0,*60
1516500198.62,53891,2.69,71634.3,-14.15,-16.89,-16.37,0,*62
1516500199.89,53892,2.75,71648.8,-14.13,-16.79,-16.23,0,*6D
1516500201.14,53893,2.69,71640.5,-14.15,-16.75,-16.17,0,*61
1516500202.39,53894,2.69,71630.5,-14.15,-16.75,-16.17,0,*66
1516500203.65,53895,2.69,71622.5,-14.15,-16.75,-16.17,0,*67
1516500204.89,53896,2.69,71628.5,-14.15,-16.65,-16.03,0,*60
1516500206.11,53897,2.69,71636.8,-14.15,-16.45,-16.03,0,*63
1516500207.36,53898,2.69,71622.8,-14.15,-16.51,-15.99,0,*69
1516500208.61,53899,2.69,71608.8,-14.15,-16.45,-16.09,0,*67
1516500209.88,53900,2.75,71614.0,-14.15,-16.65,-16.23,0,*6C
1516500211.12,53901,2.69,71614.3,-14.15,-16.79,-16.23,0,*60
1516500212.34,53902,2.69,71602.5,-14.15,-16.79,-16.37,0,*66
1516500213.56,53903,2.69,71622.3,-14.15,-16.79,-16.37,0,*67
1516500214.78,53904,2.69,71634.3,-14.15,-16.89,-16.45,0,*6A
1516500216.01,53905,2.69,71638.5,-14.15,-16.93,-16.51,0,*65
1516500217.23,53906,2.69,71636.3,-14.15,-16.93,-16.59,0,*6E
1516500218.53,53907,2.75,71636.8,-14.17,-17.03,-16.65,0,*6A
1516500219.8,53908,2.69,71642.5,-14.15,-17.11,-16.65,0,*64
1516500221.02,53909,2.69,71636.5,-14.15,-17.35,-16.79,0,*6E
1516500222.27,53910,2.69,71636.3,-14.15,-17.41,-16.89,0,*6A
1516500223.49,53911,2.69,71648.3,-14.15,-17.49,-16.93,0,*68
1516500224.73,53912,2.69,71650.3,-14.15,-17.55,-16.89,0,*6D
1516500225.99,53913,2.75,71654.3,-14.13,-17.55,-16.89,0,*6A
1516500227.23,53914,2.75,71654.5,-14.15,-17.55,-16.93,0,*60
1516500228.47,53915,2.75,71654.0,-14.15,-17.55,-16.89,0,*6A
1516500229.71,53916,2.69,71654.0,-14.15,-17.63,-16.89,0,*6C
1516500230.97,53917,2.75,71654.8,-14.13,-17.63,-16.93,0,*60
1516500232.19,53918,2.75,71654.3,-14.15,-17.49,-16.93,0,*61
1516500233.43,53919,2.69,71652.0,-14.15,-17.41,-16.89,0,*63
1516500234.65,53920,2.69,71652.8,-14.15,-17.35,-16.89,0,*6A
1516500235.87,53921,2.69,71658.0,-14.15,-17.35,-16.89,0,*6B
1516500237.11,53922,2.69,71656.5,-14.17,-17.31,-16.93,0,*65
1516500238.35,53923,2.75,71662.8,-14.17,-17.31,-16.93,0,*64
1516500239.57,53924,2.69,71662.8,-14.15,-17.35,-16.89,0,*6E
1516500240.82,53925,2.69,71660.8,-14.15,-17.35,-17.07,0,*68
1516500242.12,53926,2.69,71660.0,-14.17,-17.55,-17.11,0,*68
1516500243.41,53927,2.69,71660.3,-14.17,-17.55,-17.25,0,*6E
1516500244.71,53928,2.69,71664.0,-14.17,-17.45,-17.17,0,*61
1516500245.95,53929,2.69,71662.8,-14.17,-17.69,-17.31,0,*6A
1516500247.22,53930,2.69,71662.5,-14.17,-17.69,-17.41,0,*65
1516500248.5,53931,2.69,71666.8,-14.17,-17.73,-17.41,0,*6F
1516500249.77,53932,2.69,71656.0,-14.17,-17.83,-17.55,0,*66
1516500251.04,53933,2.69,71652.5,-14.17,-17.73,-17.45,0,*69
1516500252.32,53934,2.69,71654.5,-14.21,-17.83,-17.59,0,*69
1516500253.59,53935,2.69,71656.3,-14.17,-17.87,-17.45,0,*64
1516500254.83,53936,2.69,71656.5,-14.15,-17.79,-17.49,0,*68
1516500256.13,53937,2.69,71652.5,-14.17,-17.97,-17.55,0,*66
1516500257.43,53938,2.69,71658.8,-14.21,-17.97,-17.55,0,*6C
1516500258.71,53939,2.69,71662.3,-14.17,-17.87,-17.45,0,*68
1516500259.98,53940,2.69,71662.8,-14.17,-17.87,-17.45,0,*66
1516500261.25,53941,2.69,71664.8,-14.17,-17.87,-17.55,0,*66
1516500262.55,53942,2.69,71662.8,-14.17,-17.97,-17.59,0,*68
1516500263.83,53943,2.69,71660.5,-14.17,-17.87,-17.55,0,*64
1516500265.1,53944,2.69,71658.8,-14.21,-17.83,-17.45,0,*63
1516500266.35,53945,2.69,71660.8,-14.17,-17.87,-17.69,0,*6D
1516500267.63,53946,2.69,71662.5,-14.21,-17.87,-17.59,0,*68
1516500268.88,53947,2.69,71658.5,-14.21,-18.07,-17.73,0,*66
1516500270.18,53948,2.69,71666.3,-14.17,-18.01,-17.59,0,*62
1516500271.46,53949,2.69,71670.0,-14.21,-18.01,-17.69,0,*65
1516500272.73,53950,2.69,71670.5,-14.17,-18.01,-17.69,0,*68
1516500273.98,53951,2.69,71668.0,-14.17,-18.07,-17.69,0,*6F
1516500275.22,53952,2.69,71664.5,-14.17,-18.21,-17.73,0,*63
1516500276.47,53953,2.69,71670.5,-14.21,-18.17,-17.73,0,*62
1516500277.72,53954,2.69,71668.5,-14.21,-18.07,-17.73,0,*64
1516500278.96,53955,2.69,71668.8,-14.21,-18.21,-17.73,0,*61
1516500280.22,53956,2.69,71670.5,-14.17,-18.17,-17.83,0,*6D
1516500281.47,53957,2.69,71674.3,-14.21,-18.17,-17.83,0,*69
1516500282.75,53958,2.69,71670.3,-14.21,-18.35,-17.87,0,*62
1516500284.06,53959,2.69,71672.8,-14.21,-18.35,-18.01,0,*62
1516500285.33,53960,2.69,71672.8,-14.21,-18.45,-18.01,0,*6F
1516500286.61,53961,2.69,71678.3,-14.21,-18.35,-17.87,0,*68
1516500287.89,53962,2.69,71652.8,-14.21,-18.35,-17.83,0,*6F
1516500289.18,53963,2.69,71662.0,-14.21,-18.35,-17.83,0,*6E
1516500290.46,53964,2.69,71670.3,-14.21,-18.35,-17.87,0,*6D
1516500291.74,53965,2.69,71668.0,-14.21,-18.35,-17.87,0,*6C
1516500292.99,53966,2.69,71666.5,-14.21,-18.49,-17.87,0,*64
1516500294.28,53967,2.69,71662.5,-14.21,-18.35,-17.87,0,*6E
1516500295.56,53968,2.69,71684.0,-14.21,-18.35,-17.87,0,*61
1516500296.84,53969,2.69,71668.5,-14.21,-18.31,-17.83,0,*60
1516500298.12,53970,2.69,71662.0,-14.21,-18.35,-17.83,0,*6C
1516500299.37,53971,2.69,71670.0,-14.17,-18.21,-17.73,0,*62
1516500300.65,53972,2.69,71682.0,-14.21,-18.31,-17.73,0,*65
1516500301.92,53973,2.69,71680.0,-14.21,-18.17,-17.59,0,*68
1516500303.2,53974,2.69,71674.5,-14.21,-18.07,-17.55,0,*62
1516500304.47,53975,2.69,71662.0,-14.17,-18.17,-17.55,0,*67
1516500305.74,53976,2.69,71686.3,-14.21,-18.17,-17.41,0,*64
1516500306.99,53977,2.69,71672.8,-14.17,-18.17,-17.31,0,*67
1516500308.26,53978,2.69,71678.5,-14.21,-18.17,-17.11,0,*6F
1516500309.51,53979,2.69,71676.8,-14.21,-17.83,-16.93,0,*67
1516500310.78,53980,2.69,71684.3,-14.17,-17.69,-16.65,0,*69
1516500312.08,53981,2.75,71686.0,-14.17,-17.45,-16.27,0,*60
1516500313.36,53982,2.69,71684.8,-14.21,-17.17,-16.03,0,*67
1516500314.64,53983,2.69,71674.8,-14.17,-16.83,-15.81,0,*66
1516500315.91,53984,2.69,71678.0,-14.17,-16.69,-15.75,0,*6E
1516500317.17,53985,2.69,71670.0,-14.17,-16.37,-15.53,0,*60
1516500318.41,53986,2.69,71664.3,-14.15,-15.99,-15.35,0,*66
1516500319.65,53987,2.69,71652.5,-14.15,-15.85,-15.15,0,*68
1516500320.87,53988,2.69,71652.3,-14.15,-15.63,-15.07,0,*6C
1516500322.1,53989,2.69,71652.3,-14.15,-15.63,-15.15,0,*6E
1516500323.37,53990,2.69,71664.5,-14.17,-15.53,-15.21,0,*60
1516500324.64,53991,2.69,71656.3,-14.13,-15.29,-14.97,0,*64
1516500325.89,53992,2.69,71640.8,-14.15,-15.15,-14.97,0,*6E
1516500327.13,53993,2.69,71640.8,-14.15,-15.07,-15.01,0,*62
1516500328.37,53994,2.69,71638.8,-14.13,-15.07,-14.89,0,*62
1516500329.62,53995,2.69,71636.8,-14.13,-15.07,-14.89,0,*63
1516500330.84,53996,2.69,71646.8,-14.15,-15.07,-14.89,0,*66
1516500332.1,53997,2.69,71652.0,-14.13,-15.07,-15.01,0,*60
1516500333.37,53998,2.69,71654.0,-14.13,-15.07,-15.01,0,*6F
1516500334.61,53999,2.69,71658.8,-14.15,-15.07,-15.01,0,*68
1516500335.87,54000,2.69,71658.8,-14.13,-15.07,-15.01,0,*60
1516500337.11,54001,2.69,71656.5,-14.15,-15.07,-15.01,0,*67
1516500338.38,54002,2.69,71668.5,-14.13,-15.07,-15.01,0,*62
1516500339.64,54003,2.69,71672.5,-14.13,-15.07,-15.01,0,*63
1516500340.93,54004,2.69,71660.0,-14.13,-15.01,-15.01,0,*62
1516500342.21,54005,2.69,71634.8,-14.13,-14.97,-15.01,0,*6D
1516500343.48,54006,2.69,71646.5,-14.11,-14.97,-14.97,0,*62
1516500344.74,54007,2.69,71654.8,-14.11,-14.97,-14.97,0,*63
1516500346.0,54008,2.69,71648.0,-14.11,-14.97,-14.97,0,*6C
1516500347.29,54009,2.69,71668.5,-14.09,-14.97,-14.97,0,*64
1516500348.55,54010,2.69,71658.8,-14.11,-15.01,-15.01,0,*65
1516500349.76,54011,2.69,71640.3,-14.11,-15.11,-15.15,0,*60
1516500351.0,54012,2.69,71632.3,-14.11,-15.01,-15.25,0,*61
1516500352.23,54013,2.69,71654.0,-14.11,-15.15,-15.25,0,*65
1516500353.5,54014,2.69,71666.8,-14.09,-15.15,-15.39,0,*66
1516500354.77,54015,2.69,71664.0,-14.11,-15.39,-15.43,0,*6D
1516500355.99,54016,2.69,71660.8,-14.11,-15.53,-15.67,0,*64
1516500357.2,54017,2.69,71658.8,-14.11,-15.67,-15.67,0,*62
1516500358.45,54018,2.69,71652.0,-14.05,-15.75,-15.53,0,*6C
1516500359.72,54019,2.69,71648.8,-14.11,-15.81,-15.81,0,*6C
1516500361.02,54020,2.69,71652.5,-14.09,-15.85,-15.81,0,*6B
1516500362.32,54021,2.69,71650.8,-14.09,-15.85,-15.85,0,*6E
1516500363.59,54022,2.69,71670.3,-14.09,-15.95,-15.85,0,*6C
1516500364.83,54023,2.69,71668.8,-14.11,-15.85,-15.71,0,*6E
1516500366.1,54024,2.69,71682.0,-14.09,-15.95,-15.81,0,*6E
1516500367.35,54025,2.69,71670.0,-14.09,-15.95,-15.71,0,*60
1516500368.62,54026,2.69,71640.5,-14.09,-15.85,-15.71,0,*62
1516500369.89,54027,2.69,71648.3,-14.11,-15.85,-15.57,0,*6E
1516500371.13,54028,2.69,71628.5,-14.11,-15.71,-15.57,0,*6A
1516500372.43,54029,2.69,71614.5,-14.09,-15.81,-15.57,0,*6D
1516500373.69,54030,2.69,71624.5,-14.09,-15.71,-15.57,0,*6A
1516500374.99,54031,2.69,71638.5,-14.09,-15.57,-15.57,0,*6F
1516500376.26,54032,2.69,71636.8,-14.05,-15.53,-15.39,0,*6C
1516500377.53,54033,2.69,71636.3,-14.09,-15.67,-15.57,0,*6E
1516500378.8,54034,2.69,71638.5,-14.09,-15.67,-15.57,0,*69
1516500380.07,54035,2.69,71634.5,-14.09,-15.67,-15.43,0,*6D
1516500381.34,54036,2.69,71642.5,-14.11,-15.57,-15.43,0,*64
1516500382.62,54037,2.69,71640.8,-14.09,-15.57,-15.29,0,*60
1516500383.87,54038,2.69,71638.8,-14.09,-15.53,-15.29,0,*6B
1516500385.14,54039,2.69,71644.0,-14.09,-15.43,-15.15,0,*64
1516500386.43,54040,2.69,71648.3,-14.05,-15.39,-15.21,0,*6C
1516500387.7,54041,2.69,71646.8,-14.05,-15.25,-15.21,0,*60
1516500388.95,54042,2.69,71648.5,-14.05,-15.25,-15.11,0,*60
1516500390.22,54043,2.69,71648.3,-14.09,-15.39,-15.11,0,*60
1516500391.46,54044,2.69,71650.5,-14.09,-15.29,-15.11,0,*66
1516500392.71,54045,2.69,71656.3,-14.09,-15.25,-15.11,0,*6B
1516500393.95,54046,2.69,71656.5,-14.09,-15.25,-15.15,0,*6C
1516500395.21,54047,2.69,71662.0,-14.09,-15.25,-15.25,0,*6E
1516500396.45,54048,2.69,71662.5,-14.09,-15.29,-15.15,0,*6E
1516500397.7,54049,2.69,71666.5,-14.09,-15.25,-15.11,0,*67
1516500398.94,54050,2.69,71666.0,-14.09,-15.25,-15.15,0,*6B
1516500400.18,54051,2.69,71666.8,-14.05,-15.11,-15.07,0,*62
1516500401.44,54052,2.69,71664.3,-14.05,-15.21,-15.11,0,*65
1516500402.69,54053,2.69,71660.5,-14.05,-15.25,-15.07,0,*67
1516500403.96,54054,2.69,71662.5,-14.05,-15.11,-14.97,0,*6F
1516500405.25,54055,2.69,71662.0,-14.05,-14.97,-14.97,0,*61
1516500406.51,54056,2.69,71660.5,-14.05,-15.11,-14.97,0,*6D
1516500407.78,54057,2.69,71656.5,-14.05,-15.07,-14.97,0,*6B
1516500409.07,54058,2.69,71662.3,-14.05,-14.97,-14.97,0,*6C
1516500410.36,54059,2.69,71660.3,-14.05,-14.97,-14.97,0,*6D
1516500411.65,54060,2.69,71662.0,-14.05,-14.97,-14.97,0,*67
1516500412.94,54061,2.69,71662.3,-14.05,-14.97,-14.97,0,*66
1516500414.23,54062,2.69,71666.3,-14.05,-14.97,-14.97,0,*65
1516500415.52,54063,2.69,71670.0,-14.05,-14.97,-14.97,0,*64
1516500416.78,54064,2.69,71668.8,-14.05,-15.07,-14.97,0,*6B
1516500418.07,54065,2.69,71674.0,-14.05,-14.97,-14.97,0,*62
1516500419.34,54066,2.69,71664.0,-14.05,-15.07,-14.97,0,*69
1516500420.61,54067,2.69,71664.5,-14.05,-15.07,-14.93,0,*6C
1516500421.89,54068,2.69,71664.8,-14.05,-14.97,-14.93,0,*6B
1516500423.18,54069,2.69,71664.5,-14.05,-14.97,-14.93,0,*6A
1516500424.47,54070,2.69,71664.0,-14.05,-14.97,-14.97,0,*66
1516500425.76,54071,2.69,71658.8,-14.05,-14.97,-14.97,0,*67
1516500427.02,54072,2.69,71662.0,-14.05,-14.97,-15.07,0,*6C
1516500428.31,54073,2.69,71662.5,-14.05,-14.97,-14.97,0,*65
1516500429.57,54074,2.69,71666.8,-14.05,-14.97,-15.07,0,*6A
1516500430.84,54075,2.69,71670.0,-14.05,-15.07,-14.97,0,*6B
1516500432.1,54076,2.69,71670.0,-14.05,-14.97,-15.07,0,*68
1516500433.37,54077,2.69,71668.3,-14.05,-15.07,-14.97,0,*69
1516500434.63,54078,2.69,71668.5,-14.05,-14.97,-15.07,0,*66
1516500435.87,54079,2.69,71656.8,-14.05,-15.11,-15.07,0,*68
1516500437.11,54080,2.69,71638.8,-14.05,-15.07,-15.07,0,*69
1516500438.35,54081,2.69,71642.5,-14.05,-15.07,-15.07,0,*68
1516500439.59,54082,2.69,71648.3,-14.05,-15.11,-15.11,0,*6B
1516500440.88,54083,2.69,71638.8,-14.05,-15.21,-15.21,0,*6A
1516500442.14,54084,2.69,71640.3,-14.05,-14.97,-15.11,0,*62
1516500443.4,54085,2.69,71638.8,-14.05,-14.97,-15.07,0,*64
1516500444.69,54086,2.69,71632.3,-14.05,-14.97,-14.97,0,*6F
1516500445.95,54087,2.69,71642.3,-14.05,-14.97,-15.07,0,*66
1516500447.2,54088,2.69,71640.8,-14.05,-15.07,-15.07,0,*61
1516500448.46,54089,2.69,71642.3,-14.05,-14.97,-15.07,0,*68
1516500449.72,54090,2.69,71644.8,-14.05,-14.97,-15.07,0,*60
1516500450.96,54091,2.69,71642.0,-14.05,-15.07,-15.11,0,*6E
1516500452.25,54092,2.69,71642.5,-14.05,-15.21,-15.21,0,*6A
1516500453.54,54093,2.69,71656.3,-14.05,-15.35,-15.21,0,*6E
1516500454.81,54094,2.69,71650.3,-14.05,-15.25,-15.35,0,*6D
1516500456.09,54095,2.69,71636.0,-14.05,-15.35,-15.49,0,*66
1516500457.33,54096,2.69,71612.8,-14.05,-15.49,-15.63,0,*66
1516500458.58,54097,2.69,71646.3,-14.05,-15.63,-15.75,0,*68
1516500459.82,54098,2.69,71654.8,-14.05,-15.67,-15.75,0,*63
1516500461.12,54099,2.69,71634.3,-14.05,-15.89,-15.89,0,*61
1516500462.39,54100,2.69,71658.3,-14.05,-15.89,-15.95,0,*6D
1516500463.69,54101,2.69,71652.0,-14.05,-16.13,-16.13,0,*61
1516500464.99,54102,2.69,71654.5,-14.05,-16.13,-16.13,0,*62
1516500466.26,54103,2.69,71656.0,-14.05,-16.37,-16.27,0,*62
1516500467.53,54104,2.69,71664.3,-14.05,-16.37,-16.23,0,*61
1516500468.8,54105,2.69,71662.5,-14.05,-16.37,-16.27,0,*64
1516500470.07,54106,2.69,71664.8,-14.05,-16.51,-16.41,0,*67
1516500471.34,54107,2.69,71664.5,-14.05,-16.41,-16.51,0,*66
1516500472.61,54108,2.69,71660.0,-14.05,-16.51,-16.55,0,*6C
1516500473.9,54109,2.69,71666.0,-14.05,-16.51,-16.65,0,*6E
1516500475.17,54110,2.69,71660.5,-14.05,-16.55,-16.65,0,*62
1516500476.47,54111,2.69,71664.8,-14.05,-16.69,-16.69,0,*60
1516500477.76,54112,2.69,71654.0,-14.05,-16.69,-16.69,0,*63
1516500479.06,54113,2.69,71662.5,-14.05,-16.69,-16.69,0,*62
1516500480.33,54114,2.69,71668.5,-14.05,-16.79,-16.69,0,*64
1516500481.57,54115,2.69,71664.8,-14.05,-16.83,-16.83,0,*64
1516500482.82,54116,2.69,71662.8,-14.05,-16.97,-16.83,0,*62
1516500484.06,54117,2.69,71670.0,-14.05,-16.97,-16.83,0,*63
1516500485.31,54118,2.69,71670.8,-14.05,-16.97,-16.79,0,*69
1516500486.58,54119,2.69,71676.3,-14.05,-17.11,-16.83,0,*62
1516500487.85,54120,2.69,71676.3,-14.05,-17.03,-16.79,0,*6E
1516500489.12,54121,2.69,71678.5,-14.05,-16.97,-16.65,0,*6E
1516500490.41,54122,2.69,71682.5,-14.05,-17.03,-16.69,0,*6D
1516500491.66,54123,2.69,71676.3,-14.05,-16.97,-16.55,0,*6F
1516500492.92,54124,2.69,71680.5,-14.05,-16.89,-16.27,0,*62
1516500494.19,54125,2.69,71678.5,-14.05,-16.89,-16.23,0,*67
1516500495.46,54126,2.69,71674.5,-14.05,-16.69,-15.99,0,*68
1516500496.73,54127,2.69,71674.8,-14.05,-16.51,-15.99,0,*62
1516500498.02,54128,2.69,71676.3,-14.05,-16.23,-15.89,0,*69
1516500499.32,54129,2.69,71678.8,-14.05,-16.23,-15.81,0,*60
1516500500.62,54130,2.69,71680.5,-14.05,-16.27,-15.81,0,*6C
1516500501.89,54131,2.69,71676.8,-14.05,-16.13,-15.67,0,*62
1516500503.16,54132,2.69,71680.8,-14.05,-16.13,-15.67,0,*61